Regional Weather Roundup
Issued by NWS Newport/Morehead, NC

Current Version | Previous Version | Graphics & Text | Print | Product List | Glossary On
Versions: 1 2 3 4 5 6 7 8 9 10 11 12 13 14 15 16 17 18 19 20 21 22 23 24 25 26 27 28 29 30 31 32 33 34 35 36 37 38 39 40 41 42 43 44 45 46 47 48 49 50
000 ASUS42 KMHX 232225 RWRMHX WEATHER ROUNDUP FOR EASTERN NORTH CAROLINA NATIONAL WEATHER SERVICE NEWPORT/MOREHEAD CITY NC 500 PM EST THU FEB 23 2017 NOTE: "FAIR" INDICATES FEW OR NO CLOUDS BELOW 12,000 FEET WITH NO SIGNIFICANT WEATHER AND/OR OBSTRUCTIONS TO VISIBILITY NCZ015>017-031-032-045>047-102-103-232300- NORTH COAST CITY SKY/WX TMP DP RH WIND PRES REMARKS EDENTON MOSUNNY 70 56 60 S7 29.91R ELIZABETH CITY PTCLDY 66 55 67 SE9 29.91S KITTY HAWK NOT AVBL MANTEO MOCLDY 63 55 76 E7 29.92S $$ NCZ045>047-081-094-103-104-232300- CENTRAL COAST CITY SKY/WX TMP DP RH WIND PRES REMARKS FRISCO CLOUDY 70 57 63 CALM 29.91S $$ NCZ095-097-098-100-101-232300- SOUTHERN COAST CITY SKY/WX TMP DP RH WIND PRES REMARKS BEAUFORT SUNNY 68 58 70 E8 29.89S CEDAR ISLAND NOT AVBL JACKSONVILLE MOSUNNY 70 58 65 SE8 29.87S PINEY ISLAND CLOUDY N/A N/A N/A E7 29.89S WILMINGTON MOSUNNY 69 57 65 E5 29.87S $$ NCZ011>013-027>030-043-044-078>080-089-090>093-098-232300- COASTAL PLAIN CITY SKY/WX TMP DP RH WIND PRES REMARKS AHOSKIE N/A 69 52 54 SE6 29.89R CLINTON MOSUNNY 73 56 54 SE5 29.86S ELIZABETHTOWN SUNNY 71 56 58 SE6 29.86S GOLDSBORO PTSUNNY 74 52 45 E9 29.85S GREENVILLE MOSUNNY 70 55 60 E7 29.90S HAVELOCK SUNNY 70 57 63 SE8 29.89S KENANSVILLE SUNNY 73 54 49 SE3 29.86S KINSTON MOSUNNY 72 54 53 E9 29.88S NEW BERN MOSUNNY 68 60 75 SE8 29.89S RICHLANDS MOSUNNY 71 56 58 SE7 29.88R ROCKY MOUNT PTSUNNY 73 52 47 SE5 29.87S WASHINGTON MOSUNNY 69 55 62 SE9 29.90R WHITEVILLE MOSUNNY 73 56 57 SE8 29.85S $$ AMZ130-135-150-152-154-156-158-170-250-252-270-ANZ085-086-088-633-658-670-232300- MARINE OBSERVATIONS STATION/POSITION TIME TEMP WIND PRES WAVE SWELL AIR SEA DIR/SP/G HT/PER HT/PER (UTC) (F) (DEG/KT/KT) (MB) (FT/S) (FT/S) CHESAPEAKE LIGHT NOT AVBL 64 E VA BEACH 2150 59 55 140/ 6/ 6 1012.9 3/11 3/11 DUCK 2154 55 50 140/ 7/ 8 1012.5 2 E DUCK 2200 52 N/A 3/11 2/11 OREGON INLET 2154 57 54 80/ 5/ 7 1013.0 13E OREGON INLT NOT AVBL HATTERAS CG 2154 65 61 110/ 2/ 3 1012.4 DIAMOND BUOY 2150 70 73 140/ 14/ 17 1012.6 5/ 6 3/11 CAPE LOOKOUT 2200 65 120/ 10/ 10 1011.7 BEAUFORT LAB 2154 65 56 120/ 8/ 11 1011.1 30 SE NEW RVR IN 2208 68 110/ 6/ 10 1011.6 30 SE NEW RVR IN 2213 69 N/A 5/ 7 2/11 27 SE WRIGHTSVLE 2208 69 67 110/ 8/ 12 1011.1 5 SE WRIGHTSVLE 2208 60 58 20/ 4/ 8 1011.3 225 S CAPE HAT 2150 69 70 100/ 23/ 27 1010.0 9/ 8 3/12 41 SE CHARLESTON 2150 71 70 70/ 16/ 17 1008.5 8/ 8 7/ 8 $$

USA.gov is the U.S. government's official web portal to all federal, state and local government web resources and services.